2020/07/24 23:28:46+0000,-39.99,-51.42,-33.97,-48.49,-55.36,-56.18
2020/07/24 23:29:38+0000,-39.62,-50.98,-35.93,-49.97,-56.22,-55.26
2020/07/24 23:30:30+0000,-39.17,-46.38,-33.53,-49.99,-55.69,-55.77
2020/07/24 23:31:30+0000,-40.01,-44.97,-33.31,-49.42,-55.53,-56.22
2020/07/24 23:32:22+0000,-40.36,-43.75,-33.89,-46.67,-55.18,-56.01
2020/07/24 23:33:14+0000,-38.82,-43.24,-34.11,-49.77,-55.35,-56.60
2020/07/24 23:34:06+0000,-40.58,-42.37,-34.24,-48.77,-54.99,-55.76
2020/07/24 23:34:58+0000,-40.83,-42.77,-34.53,-49.56,-55.31,-56.55
2020/07/24 23:35:50+0000,-40.81,-48.06,-34.59,-50.11,-55.36,-56.04
2020/07/24 23:36:42+0000,-40.99,-48.09,-33.90,-48.68,-54.50,-56.41
2020/07/24 23:37:34+0000,-40.43,-48.34,-34.04,-50.27,-55.37,-55.71
2020/07/24 23:38:26+0000,-40.61,-48.86,-33.89,-49.51,-55.46,-56.01
2020/07/24 23:39:18+0000,-40.65,-45.88,-33.51,-49.00,-55.46,-56.58
2020/07/24 23:40:11+0000,-40.48,-46.82,-33.83,-49.49,-53.85,-56.20
2020/07/24 23:41:11+0000,-41.03,-48.34,-33.23,-49.80,-55.44,-55.81
2020/07/24 23:42:03+0000,-40.56,-47.10,-33.48,-50.25,-55.07,-56.28
2020/07/24 23:42:55+0000,-40.91,-47.93,-34.01,-49.89,-55.05,-56.04
2020/07/24 23:43:47+0000,-40.82,-47.33,-33.77,-49.23,-55.22,-56.09
2020/07/24 23:44:39+0000,-40.45,-48.37,-33.48,-49.60,-54.84,-56.33
2020/07/24 23:45:31+0000,-40.55,-47.08,-33.79,-50.19,-53.99,-56.43
2020/07/24 23:46:23+0000,-41.16,-47.34,-32.69,-49.05,-53.94,-55.97
2020/07/24 23:47:15+0000,-40.91,-48.78,-32.70,-50.15,-55.45,-56.41
2020/07/24 23:48:07+0000,-40.84,-46.33,-33.70,-49.06,-55.08,-56.43
2020/07/24 23:48:59+0000,-40.78,-47.03,-33.12,-49.73,-55.31,-56.27
2020/07/24 23:49:52+0000,-41.08,-48.11,-33.11,-49.66,-55.18,-56.06
2020/07/24 23:50:44+0000,-41.51,-49.01,-33.44,-49.81,-54.95,-56.54
2020/07/24 23:51:43+0000,-40.34,-47.40,-33.26,-49.08,-55.01,-55.82
2020/07/24 23:52:35+0000,-39.96,-46.98,-33.47,-48.77,-55.51,-55.82
2020/07/24 23:53:27+0000,-41.09,-47.68,-33.60,-49.42,-52.37,-55.95
2020/07/24 23:54:19+0000,-41.07,-48.24,-33.42,-48.77,-54.60,-56.27
2020/07/24 23:55:12+0000,-40.46,-48.14,-33.76,-49.40,-54.77,-56.11
2020/07/24 23:56:04+0000,-40.18,-45.24,-34.26,-49.68,-55.16,-56.35
2020/07/24 23:56:56+0000,-40.54,-44.96,-34.10,-49.78,-54.23,-56.19
2020/07/24 23:57:48+0000,-41.16,-45.36,-33.86,-49.43,-55.43,-55.98
2020/07/24 23:58:40+0000,-40.71,-43.80,-33.61,-49.27,-55.13,-55.95
2020/07/24 23:59:32+0000,-40.21,-45.58,-34.26,-49.64,-54.86,-56.07
2020/07/25 00:00:24+0000,-41.20,-47.42,-33.58,-48.63,-54.60,-56.33
2020/07/25 00:01:28+0000,-41.11,-46.93,-35.02,-49.13,-54.97,-56.18
2020/07/25 00:02:20+0000,-40.83,-48.05,-33.53,-48.75,-55.41,-56.89
2020/07/25 00:03:12+0000,-40.89,-48.73,-33.64,-48.35,-54.11,-56.69
2020/07/25 00:04:04+0000,-41.39,-46.96,-33.80,-48.42,-54.29,-56.03
2020/07/25 00:04:56+0000,-41.05,-47.23,-33.58,-48.81,-54.35,-55.94
2020/07/25 00:05:48+0000,-40.87,-48.98,-33.36,-48.91,-55.00,-55.89
2020/07/25 00:06:40+0000,-40.97,-47.71,-33.40,-49.09,-54.57,-56.57
2020/07/25 00:07:32+0000,-41.08,-48.59,-33.25,-48.79,-55.14,-56.53
2020/07/25 00:08:24+0000,-40.73,-47.32,-33.29,-46.48,-54.86,-56.16
2020/07/25 00:09:16+0000,-40.61,-48.05,-33.56,-48.53,-54.57,-56.35
2020/07/25 00:10:09+0000,-41.16,-47.52,-33.14,-49.41,-54.60,-56.39
2020/07/25 00:11:09+0000,-40.78,-47.80,-33.62,-48.83,-54.97,-55.45
2020/07/25 00:12:01+0000,-40.95,-47.76,-33.58,-48.73,-55.10,-56.03
2020/07/25 00:12:53+0000,-40.46,-47.52,-34.08,-48.50,-55.10,-56.11
2020/07/25 00:13:45+0000,-40.95,-46.18,-33.60,-50.05,-54.93,-56.02
2020/07/25 00:14:37+0000,-40.17,-46.58,-33.50,-49.24,-55.01,-56.60
2020/07/25 00:15:29+0000,-40.96,-47.20,-33.82,-49.25,-55.89,-55.99
2020/07/25 00:16:21+0000,-40.61,-48.88,-33.91,-49.95,-54.38,-56.29
2020/07/25 00:17:13+0000,-41.31,-45.89,-33.75,-49.92,-55.36,-56.44
2020/07/25 00:18:05+0000,-40.71,-46.89,-33.48,-49.23,-55.15,-56.58
2020/07/25 00:18:57+0000,-40.23,-47.75,-33.62,-49.40,-55.36,-56.40
2020/07/25 00:19:50+0000,-41.14,-47.32,-33.27,-49.49,-54.77,-56.32
2020/07/25 00:20:42+0000,-40.15,-47.63,-33.95,-49.23,-55.46,-55.84
2020/07/25 00:21:41+0000,-41.36,-47.60,-33.70,-47.77,-54.93,-56.25
2020/07/25 00:22:33+0000,-41.03,-48.14,-33.58,-49.81,-55.36,-55.97
2020/07/25 00:23:25+0000,-41.18,-48.12,-33.57,-48.66,-55.18,-56.48
2020/07/25 00:24:17+0000,-41.48,-48.37,-32.57,-48.93,-55.07,-56.39
2020/07/25 00:25:09+0000,-39.84,-46.52,-33.36,-48.34,-55.27,-56.44
2020/07/25 00:26:01+0000,-40.75,-48.61,-33.57,-47.59,-55.71,-56.06
2020/07/25 00:26:54+0000,-40.38,-47.57,-33.62,-48.34,-55.18,-56.14
2020/07/25 00:27:46+0000,-40.99,-47.04,-33.50,-48.64,-54.79,-56.52
2020/07/25 00:28:38+0000,-40.66,-47.70,-33.93,-48.54,-54.91,-55.98
2020/07/25 00:29:30+0000,-40.76,-48.50,-33.82,-48.74,-56.00,-56.37
2020/07/25 00:30:22+0000,-40.37,-46.02,-33.32,-49.64,-55.05,-56.77
2020/07/25 00:34:45+0000,-40.19,-47.48,-33.90,-49.02,-54.57,-55.94
2020/07/25 00:35:37+0000,-40.59,-46.44,-33.62,-48.68,-54.96,-55.76
2020/07/25 00:36:29+0000,-40.16,-46.64,-33.52,-48.58,-54.40,-56.24
2020/07/25 00:37:21+0000,-39.78,-48.13,-33.79,-48.85,-55.20,-55.84
2020/07/25 00:38:13+0000,-40.24,-46.84,-34.05,-48.92,-55.35,-56.00
2020/07/25 00:39:05+0000,-40.56,-47.06,-33.64,-48.87,-55.21,-56.05
2020/07/25 00:39:58+0000,-40.74,-46.93,-34.42,-48.45,-53.46,-56.28
2020/07/25 00:40:50+0000,-41.18,-47.58,-34.69,-49.29,-54.07,-56.93
2020/07/25 00:41:52+0000,-40.49,-46.87,-34.39,-48.56,-55.15,-56.24
2020/07/25 00:42:44+0000,-40.91,-48.53,-33.86,-48.80,-55.45,-55.64
2020/07/25 00:43:36+0000,-40.14,-47.55,-34.14,-49.29,-54.75,-55.88
2020/07/25 00:44:28+0000,-40.98,-46.67,-34.58,-49.55,-54.76,-56.18
2020/07/25 00:45:20+0000,-41.12,-48.06,-33.93,-49.49,-55.00,-56.06
2020/07/25 00:46:12+0000,-40.87,-47.33,-34.00,-48.73,-54.42,-56.25
2020/07/25 00:47:04+0000,-41.14,-45.61,-34.23,-50.32,-54.63,-56.30
2020/07/25 00:47:56+0000,-40.73,-47.31,-34.07,-50.17,-55.08,-56.75
2020/07/25 00:48:48+0000,-41.50,-46.48,-34.18,-50.47,-54.56,-56.28
2020/07/25 00:49:41+0000,-40.91,-47.51,-33.91,-49.64,-54.65,-56.25
2020/07/25 00:50:33+0000,-40.08,-48.75,-33.94,-50.00,-54.62,-55.81
2020/07/25 00:51:32+0000,-40.98,-48.40,-33.53,-49.98,-55.04,-56.31
2020/07/25 00:52:24+0000,-41.02,-47.23,-34.00,-49.60,-54.44,-56.62
2020/07/25 00:53:16+0000,-40.84,-47.42,-34.20,-49.18,-54.30,-56.03
2020/07/25 00:54:08+0000,-40.96,-48.86,-33.55,-49.57,-55.23,-57.08
2020/07/25 00:55:00+0000,-41.16,-46.67,-33.88,-49.69,-54.76,-56.96
2020/07/25 00:55:53+0000,-40.94,-50.34,-33.35,-47.74,-54.09,-55.83
2020/07/25 00:56:45+0000,-41.30,-50.05,-34.43,-49.49,-54.71,-56.81
2020/07/25 00:57:37+0000,-40.97,-48.44,-33.42,-48.46,-54.49,-56.50
2020/07/25 00:58:29+0000,-41.12,-47.62,-33.07,-49.17,-53.77,-56.82
2020/07/25 00:59:21+0000,-40.85,-46.58,-33.87,-49.47,-54.21,-56.32
2020/07/25 01:00:13+0000,-41.15,-47.84,-33.59,-49.42,-53.88,-56.34
2020/07/25 01:01:13+0000,-41.20,-46.87,-34.08,-49.66,-54.02,-56.35
2020/07/25 01:02:05+0000,-39.80,-47.11,-34.14,-49.45,-54.03,-56.75
2020/07/25 01:02:57+0000,-41.16,-47.92,-33.82,-48.45,-54.66,-56.16
2020/07/25 01:03:50+0000,-41.86,-48.09,-33.98,-47.31,-55.21,-56.48
2020/07/25 01:04:42+0000,-40.40,-45.97,-33.79,-49.11,-54.93,-55.93
2020/07/25 01:05:34+0000,-41.07,-46.97,-34.49,-49.75,-54.85,-56.29
2020/07/25 01:06:26+0000,-41.09,-46.30,-34.72,-49.29,-54.32,-56.55
2020/07/25 01:07:18+0000,-41.11,-49.35,-33.02,-49.11,-54.28,-56.01
2020/07/25 01:08:10+0000,-42.15,-50.05,-32.47,-48.66,-54.93,-56.18
2020/07/25 01:09:02+0000,-41.61,-50.43,-33.00,-48.86,-54.19,-56.23
2020/07/25 01:09:54+0000,-41.77,-48.75,-33.93,-49.21,-55.29,-56.13
2020/07/25 01:10:46+0000,-41.72,-50.42,-33.89,-48.75,-55.76,-56.48
2020/07/25 01:11:46+0000,-41.26,-50.02,-33.67,-49.82,-55.15,-56.30
2020/07/25 01:12:38+0000,-41.77,-50.87,-33.64,-49.57,-55.70,-55.35
2020/07/25 01:13:30+0000,-40.09,-49.49,-33.57,-48.62,-55.56,-55.91
2020/07/25 01:14:22+0000,-41.06,-51.01,-33.65,-49.37,-54.70,-56.25
2020/07/25 01:15:14+0000,-41.83,-49.40,-33.34,-49.02,-55.01,-56.31
2020/07/25 01:16:06+0000,-40.45,-51.29,-33.17,-48.99,-55.24,-56.61
2020/07/25 01:16:58+0000,-41.32,-49.01,-33.46,-48.81,-55.75,-56.16
2020/07/25 01:17:50+0000,-41.76,-50.32,-33.99,-48.83,-55.63,-56.28
2020/07/25 01:18:42+0000,-40.76,-48.88,-33.76,-49.25,-55.17,-56.51
2020/07/25 01:19:34+0000,-41.24,-49.06,-33.86,-48.94,-55.80,-55.91
2020/07/25 01:20:26+0000,-41.01,-48.96,-33.22,-48.02,-55.19,-55.97
2020/07/25 01:21:28+0000,-41.51,-49.49,-33.05,-49.44,-55.05,-56.78
2020/07/25 01:22:20+0000,-40.69,-49.67,-33.16,-49.11,-55.37,-56.03
2020/07/25 01:23:12+0000,-40.82,-49.73,-33.01,-49.01,-55.24,-56.40
2020/07/25 01:24:04+0000,-40.99,-50.37,-33.57,-49.07,-55.47,-56.13
2020/07/25 01:24:56+0000,-41.44,-49.56,-33.19,-50.21,-54.87,-56.51
2020/07/25 01:25:48+0000,-41.53,-49.61,-33.19,-49.76,-54.77,-56.62
2020/07/25 01:26:40+0000,-41.97,-50.04,-32.95,-49.35,-55.18,-56.40
2020/07/25 01:27:33+0000,-41.30,-47.86,-33.32,-49.54,-55.25,-56.31
2020/07/25 01:28:25+0000,-41.05,-50.66,-33.00,-49.39,-55.07,-55.81
2020/07/25 01:29:17+0000,-41.21,-49.59,-33.69,-49.22,-55.10,-56.25
2020/07/25 01:30:09+0000,-41.47,-49.05,-33.12,-49.66,-54.87,-56.13
2020/07/25 01:31:10+0000,-40.07,-48.63,-34.04,-49.89,-54.89,-56.27
2020/07/25 01:32:02+0000,-40.58,-49.41,-33.56,-49.68,-54.87,-56.25
2020/07/25 01:32:54+0000,-40.99,-48.77,-32.93,-49.82,-55.51,-56.38
2020/07/25 01:33:46+0000,-40.51,-49.38,-33.52,-50.44,-54.50,-56.05
2020/07/25 01:34:38+0000,-40.65,-50.03,-33.40,-50.86,-54.16,-55.66
2020/07/25 01:35:30+0000,-40.75,-49.34,-33.20,-49.89,-55.37,-56.61
2020/07/25 01:36:22+0000,-41.11,-50.13,-33.08,-49.73,-55.03,-56.17
2020/07/25 01:37:14+0000,-41.62,-50.24,-33.23,-48.64,-54.13,-56.32
2020/07/25 01:38:06+0000,-40.42,-50.39,-32.66,-48.83,-55.63,-55.64
2020/07/25 01:38:58+0000,-41.62,-49.90,-32.65,-49.34,-54.86,-55.82
2020/07/25 01:39:51+0000,-42.06,-49.95,-33.03,-49.10,-55.13,-56.43
2020/07/25 01:40:43+0000,-41.77,-49.64,-32.73,-48.88,-54.57,-56.59
2020/07/25 01:41:43+0000,-41.01,-49.12,-33.03,-49.30,-54.84,-56.09
2020/07/25 01:42:35+0000,-41.18,-49.35,-32.95,-49.86,-55.00,-56.31
2020/07/25 01:43:27+0000,-41.54,-48.29,-32.51,-48.79,-55.76,-56.34
2020/07/25 01:44:19+0000,-41.64,-49.52,-32.67,-48.62,-54.69,-56.10
2020/07/25 01:45:11+0000,-38.85,-50.32,-32.99,-49.43,-53.65,-56.35
2020/07/25 01:46:03+0000,-41.57,-49.58,-33.03,-50.02,-55.15,-55.90
2020/07/25 01:46:55+0000,-41.07,-48.69,-32.91,-50.38,-54.89,-56.18
2020/07/25 01:47:47+0000,-42.20,-48.97,-32.90,-49.81,-54.45,-55.87
2020/07/25 01:48:39+0000,-41.70,-48.14,-33.15,-49.29,-55.12,-56.51
2020/07/25 01:49:31+0000,-41.78,-49.15,-32.91,-50.11,-55.27,-56.23
2020/07/25 01:50:23+0000,-42.08,-49.52,-33.23,-50.41,-55.25,-56.58
2020/07/25 01:51:23+0000,-42.06,-49.87,-32.81,-49.82,-55.04,-56.26
2020/07/25 01:52:15+0000,-41.40,-49.52,-33.23,-50.05,-55.00,-56.49
2020/07/25 01:53:07+0000,-40.09,-49.69,-33.13,-49.99,-55.05,-55.96
2020/07/25 01:53:59+0000,-42.17,-48.40,-32.96,-49.72,-55.02,-56.18
2020/07/25 01:54:51+0000,-41.94,-49.83,-32.94,-50.68,-55.15,-56.05
2020/07/25 01:55:43+0000,-42.20,-48.61,-33.50,-49.67,-55.18,-56.47
2020/07/25 01:56:35+0000,-41.90,-48.84,-32.84,-50.18,-55.28,-55.97
2020/07/25 01:57:27+0000,-42.48,-49.62,-33.28,-50.49,-55.09,-56.22
2020/07/25 01:58:19+0000,-41.23,-48.85,-33.45,-50.05,-55.00,-56.05
2020/07/25 01:59:11+0000,-41.38,-50.08,-33.17,-49.62,-54.82,-56.17
2020/07/25 02:00:03+0000,-41.42,-47.31,-33.01,-50.71,-54.81,-56.55
2020/07/25 02:01:05+0000,-41.62,-50.32,-33.53,-49.88,-54.33,-56.40
2020/07/25 02:01:57+0000,-41.33,-49.65,-33.50,-49.60,-55.38,-56.39
2020/07/25 02:02:49+0000,-41.99,-49.31,-33.10,-49.46,-54.74,-56.28
2020/07/25 02:03:41+0000,-41.75,-48.57,-33.64,-50.96,-54.58,-55.97
2020/07/25 02:04:33+0000,-41.47,-49.01,-33.84,-49.73,-54.91,-56.37
2020/07/25 02:05:25+0000,-41.49,-47.08,-33.43,-49.64,-55.16,-56.31
2020/07/25 02:06:17+0000,-40.07,-49.84,-33.47,-49.01,-54.98,-56.13
2020/07/25 02:07:09+0000,-41.48,-48.02,-32.96,-48.08,-55.10,-56.12
2020/07/25 02:08:01+0000,-41.17,-48.93,-33.34,-49.20,-54.91,-56.08
2020/07/25 02:08:54+0000,-40.26,-48.05,-33.33,-48.75,-54.90,-56.69
2020/07/25 02:09:46+0000,-40.64,-49.01,-32.84,-48.58,-55.22,-56.56
2020/07/25 02:10:38+0000,-41.67,-49.60,-32.91,-49.24,-55.18,-55.58
2020/07/25 02:11:37+0000,-41.80,-47.74,-33.32,-49.22,-54.67,-55.78
2020/07/25 02:12:29+0000,-42.58,-48.05,-33.18,-48.98,-55.20,-56.24
2020/07/25 02:13:21+0000,-41.48,-49.30,-32.96,-49.05,-54.83,-56.67
2020/07/25 02:14:13+0000,-41.31,-48.39,-33.72,-47.45,-55.02,-55.98
2020/07/25 02:15:06+0000,-40.80,-50.97,-32.82,-48.24,-54.76,-56.33
2020/07/25 02:15:58+0000,-40.75,-48.23,-33.76,-49.27,-54.96,-56.50
2020/07/25 02:16:50+0000,-41.72,-48.43,-32.90,-49.18,-55.27,-56.41
2020/07/25 02:17:42+0000,-42.16,-48.85,-33.17,-48.43,-54.69,-56.27
2020/07/25 02:18:34+0000,-41.23,-48.92,-34.19,-49.68,-55.26,-56.39
2020/07/25 02:19:26+0000,-41.21,-48.58,-34.02,-49.75,-55.45,-55.92
2020/07/25 02:20:18+0000,-41.58,-47.27,-33.52,-49.32,-54.71,-56.65
2020/07/25 02:21:18+0000,-41.24,-46.66,-32.59,-49.79,-55.14,-55.59
2020/07/25 02:22:10+0000,-41.44,-49.54,-33.81,-49.37,-55.30,-56.33
2020/07/25 02:23:02+0000,-42.13,-49.49,-38.63,-51.11,-55.93,-57.24
2020/07/25 02:23:54+0000,-41.30,-48.51,-38.90,-50.16,-56.35,-57.41
2020/07/25 02:24:46+0000,-42.00,-47.46,-38.50,-51.36,-56.55,-57.44
2020/07/25 02:25:38+0000,-41.62,-47.82,-34.08,-50.90,-55.99,-56.89
2020/07/25 02:26:30+0000,-42.24,-48.82,-34.37,-51.03,-56.14,-57.63
2020/07/25 02:27:22+0000,-41.25,-50.12,-34.94,-51.71,-56.24,-51.37
2020/07/25 02:28:15+0000,-41.34,-47.14,-33.59,-50.31,-56.02,-56.85
2020/07/25 02:29:07+0000,-41.92,-50.21,-38.34,-51.49,-54.89,-57.30
2020/07/25 02:29:59+0000,-40.34,-49.66,-34.60,-49.91,-56.12,-56.90
2020/07/25 02:30:51+0000,-41.15,-50.17,-33.80,-49.22,-55.86,-57.39
2020/07/25 02:31:50+0000,-41.46,-48.70,-33.69,-50.60,-56.32,-57.48
2020/07/25 02:32:43+0000,-40.90,-49.32,-34.70,-49.45,-55.67,-57.20
2020/07/25 02:33:35+0000,-42.01,-48.73,-34.74,-50.22,-55.30,-57.06
2020/07/25 02:34:27+0000,-41.90,-47.50,-34.31,-50.15,-54.78,-57.63
2020/07/25 02:35:19+0000,-41.64,-49.87,-33.94,-50.24,-55.19,-56.91
2020/07/25 02:36:11+0000,-42.74,-48.45,-37.33,-51.18,-55.40,-56.96
2020/07/25 02:37:03+0000,-41.22,-47.28,-36.63,-50.76,-55.10,-57.16
2020/07/25 02:37:55+0000,-42.20,-48.41,-34.32,-49.04,-55.70,-57.35
2020/07/25 02:38:47+0000,-41.68,-47.41,-35.07,-50.05,-55.20,-57.25
2020/07/25 02:39:39+0000,-40.57,-48.87,-34.94,-50.51,-55.86,-56.87
2020/07/25 02:40:31+0000,-41.62,-49.01,-37.93,-50.45,-56.43,-57.37
2020/07/25 02:41:31+0000,-42.13,-48.96,-36.93,-49.69,-56.37,-57.46
2020/07/25 02:42:23+0000,-38.57,-51.73,-37.44,-51.27,-55.09,-57.55
2020/07/25 02:43:15+0000,-41.86,-47.87,-37.23,-50.78,-55.44,-57.34
2020/07/25 02:44:07+0000,-42.71,-51.88,-36.46,-51.20,-55.31,-57.58
2020/07/25 02:44:59+0000,-40.89,-47.90,-37.39,-51.11,-55.53,-57.55
2020/07/25 02:45:51+0000,-42.54,-48.98,-37.47,-50.22,-55.06,-57.65
2020/07/25 02:46:43+0000,-41.68,-46.76,-37.77,-50.63,-55.37,-57.59
2020/07/25 02:47:35+0000,-40.50,-49.13,-37.40,-51.12,-54.82,-57.82
2020/07/25 02:48:27+0000,-42.24,-49.10,-37.50,-50.40,-53.77,-57.11
2020/07/25 02:49:19+0000,-39.75,-47.37,-37.05,-51.19,-54.59,-57.65
2020/07/25 02:50:12+0000,-41.05,-47.59,-37.77,-51.25,-54.15,-57.18
2020/07/25 02:51:15+0000,-40.84,-47.90,-38.27,-50.10,-53.65,-57.36
2020/07/25 02:52:07+0000,-41.18,-49.63,-37.56,-49.66,-54.78,-56.78
2020/07/25 02:52:59+0000,-41.72,-48.58,-37.56,-51.05,-53.43,-57.24
2020/07/25 02:53:51+0000,-41.45,-50.47,-37.28,-50.25,-54.17,-56.77
2020/07/25 02:54:43+0000,-40.62,-48.72,-37.92,-51.27,-53.33,-57.19
2020/07/25 02:55:35+0000,-41.27,-47.92,-37.45,-51.09,-53.58,-57.47
2020/07/25 02:56:27+0000,-41.30,-48.21,-38.13,-51.62,-54.23,-57.24
2020/07/25 02:57:19+0000,-41.77,-48.89,-37.71,-51.02,-53.74,-56.97
2020/07/25 02:58:11+0000,-40.77,-47.86,-38.22,-50.71,-53.93,-57.21
2020/07/25 02:59:04+0000,-41.20,-47.50,-38.67,-50.37,-53.30,-57.42
2020/07/25 02:59:56+0000,-41.04,-48.15,-38.54,-50.95,-53.55,-56.81
2020/07/25 03:00:48+0000,-40.03,-47.90,-39.02,-49.54,-53.69,-57.31
2020/07/25 03:01:48+0000,-41.88,-46.26,-35.59,-51.81,-53.69,-57.63
2020/07/25 03:02:40+0000,-40.40,-48.20,-39.43,-49.98,-54.16,-57.34
2020/07/25 03:03:32+0000,-40.29,-46.66,-39.03,-51.10,-54.19,-57.16
2020/07/25 03:04:24+0000,-41.37,-44.92,-39.25,-51.79,-54.10,-57.24
2020/07/25 03:05:16+0000,-41.21,-45.84,-39.08,-50.57,-54.78,-56.96
2020/07/25 03:06:08+0000,-40.42,-45.86,-38.93,-50.93,-54.62,-57.24
2020/07/25 03:07:00+0000,-41.47,-45.23,-38.83,-51.11,-55.42,-57.45
2020/07/25 03:07:52+0000,-41.06,-44.69,-38.61,-50.33,-54.90,-57.05
2020/07/25 03:08:44+0000,-41.34,-44.51,-35.66,-50.21,-55.48,-57.24
2020/07/25 03:09:36+0000,-39.94,-47.72,-35.61,-50.22,-56.07,-57.44
2020/07/25 03:10:29+0000,-41.51,-45.24,-34.93,-49.97,-56.23,-57.53
2020/07/25 03:11:28+0000,-41.09,-44.31,-37.76,-49.67,-56.13,-57.44
2020/07/25 03:12:20+0000,-40.77,-46.50,-34.52,-50.68,-56.37,-57.77
2020/07/25 03:13:12+0000,-39.27,-45.45,-35.86,-50.55,-55.51,-57.67
2020/07/25 03:14:04+0000,-40.47,-43.82,-34.43,-50.22,-55.35,-57.08
2020/07/25 03:14:56+0000,-40.56,-44.97,-36.33,-50.63,-55.47,-56.92
2020/07/25 03:15:48+0000,-40.43,-46.57,-37.26,-50.79,-55.37,-57.43
2020/07/25 03:16:40+0000,-39.09,-44.59,-34.25,-49.80,-55.66,-56.89
2020/07/25 03:17:32+0000,-39.46,-43.24,-33.53,-49.61,-55.48,-57.14
2020/07/25 03:18:25+0000,-40.41,-42.77,-34.16,-50.14,-55.44,-56.78
2020/07/25 03:19:17+0000,-40.57,-43.69,-35.16,-49.83,-56.03,-56.63
2020/07/25 03:20:09+0000,-40.12,-44.40,-38.18,-51.07,-56.52,-56.70
2020/07/25 03:21:11+0000,-39.55,-43.83,-34.77,-50.44,-55.75,-57.19
2020/07/25 03:22:03+0000,-38.93,-43.04,-34.07,-50.01,-56.28,-56.43
2020/07/25 03:22:55+0000,-40.63,-43.77,-34.10,-48.47,-55.55,-57.04
2020/07/25 03:23:47+0000,-40.96,-42.68,-34.33,-49.91,-55.62,-57.01
2020/07/25 03:24:39+0000,-40.73,-44.04,-33.98,-49.87,-55.78,-57.68
2020/07/25 03:25:31+0000,-40.50,-42.88,-34.25,-49.79,-55.96,-56.97
2020/07/25 03:26:23+0000,-40.00,-43.87,-33.91,-49.78,-55.16,-56.63
2020/07/25 03:27:15+0000,-41.04,-42.40,-34.30,-49.57,-55.85,-56.49
2020/07/25 03:28:07+0000,-41.01,-44.38,-36.98,-49.57,-54.41,-56.95
2020/07/25 03:28:59+0000,-41.54,-44.87,-37.17,-50.35,-55.09,-50.99
2020/07/25 03:29:52+0000,-40.79,-43.74,-37.23,-48.90,-53.30,-54.41
2020/07/25 03:30:44+0000,-39.19,-42.27,-37.41,-49.29,-55.04,-56.59
2020/07/25 03:31:43+0000,-39.19,-41.45,-37.74,-49.61,-54.92,-54.55
2020/07/25 03:32:35+0000,-39.49,-43.20,-34.35,-50.37,-54.73,-49.49
2020/07/25 03:33:27+0000,-39.69,-42.51,-36.44,-49.64,-54.88,-57.05
2020/07/25 03:34:19+0000,-39.30,-41.85,-34.45,-48.99,-54.24,-55.66
2020/07/25 03:35:11+0000,-38.84,-43.52,-35.01,-49.36,-54.72,-55.52
2020/07/25 03:36:03+0000,-39.43,-43.86,-37.89,-49.36,-53.93,-56.04
2020/07/25 03:36:55+0000,-39.55,-44.02,-38.38,-48.38,-54.14,-56.38
2020/07/25 03:37:47+0000,-40.03,-43.13,-34.82,-47.82,-54.65,-55.19
2020/07/25 03:38:39+0000,-39.45,-43.17,-34.80,-48.72,-54.31,-56.13
2020/07/25 03:39:32+0000,-39.35,-43.95,-35.16,-48.96,-54.39,-55.89
2020/07/25 03:40:24+0000,-39.48,-45.20,-34.89,-49.35,-53.94,-56.03
2020/07/25 03:41:23+0000,-38.56,-45.04,-35.11,-48.59,-54.52,-56.05
2020/07/25 03:42:15+0000,-40.70,-43.30,-34.65,-48.17,-54.80,-56.38
2020/07/25 03:43:07+0000,-39.90,-45.82,-37.27,-49.28,-53.80,-55.96
2020/07/25 03:43:59+0000,-40.10,-42.55,-38.72,-50.37,-53.59,-55.67
2020/07/25 03:44:51+0000,-39.87,-44.48,-35.51,-49.43,-54.24,-55.88
2020/07/25 03:45:43+0000,-40.39,-43.03,-37.44,-49.87,-54.70,-55.94
2020/07/25 03:46:35+0000,-38.96,-43.64,-34.16,-49.72,-54.34,-56.02
2020/07/25 03:47:27+0000,-39.83,-43.02,-38.54,-49.22,-54.52,-55.77
2020/07/25 03:48:20+0000,-39.38,-42.29,-37.28,-49.69,-53.84,-55.91
2020/07/25 03:49:12+0000,-39.78,-41.61,-37.11,-49.31,-54.01,-55.90
2020/07/25 03:50:04+0000,-38.81,-42.66,-38.08,-50.26,-54.18,-55.92
2020/07/25 03:51:03+0000,-39.06,-43.21,-36.88,-48.95,-53.77,-55.81
2020/07/25 03:51:55+0000,-36.63,-42.69,-37.07,-48.99,-54.60,-56.08
2020/07/25 03:52:47+0000,-39.00,-41.81,-35.71,-48.21,-53.93,-55.91
2020/07/25 03:53:40+0000,-38.23,-42.61,-34.87,-48.73,-54.46,-56.03
2020/07/25 03:54:32+0000,-40.94,-43.20,-35.40,-48.41,-53.88,-56.31
2020/07/25 03:55:24+0000,-40.34,-43.25,-35.21,-48.59,-54.28,-55.62
2020/07/25 03:56:16+0000,-39.47,-42.81,-34.58,-48.15,-54.75,-55.68
2020/07/25 03:57:08+0000,-38.43,-43.71,-36.74,-49.36,-53.99,-56.01
2020/07/25 03:58:00+0000,-38.87,-42.84,-37.28,-49.44,-54.53,-55.87
2020/07/25 03:58:52+0000,-41.28,-44.45,-36.72,-48.30,-54.01,-55.83
2020/07/25 03:59:44+0000,-37.68,-42.90,-37.33,-49.30,-53.84,-56.31
2020/07/25 04:00:36+0000,-38.10,-42.86,-34.22,-49.22,-54.67,-56.17
2020/07/25 04:01:34+0000,-40.26,-42.11,-35.41,-49.03,-53.81,-56.07
2020/07/25 04:02:26+0000,-39.85,-41.39,-36.46,-48.45,-53.60,-55.54
2020/07/25 04:03:18+0000,-39.63,-42.92,-35.97,-47.39,-53.86,-55.92
2020/07/25 04:04:11+0000,-40.39,-43.72,-36.75,-49.23,-54.21,-56.02
2020/07/25 04:05:03+0000,-39.31,-42.73,-36.38,-49.17,-54.01,-55.99
2020/07/25 04:05:55+0000,-40.12,-41.95,-38.56,-49.41,-54.67,-55.54
2020/07/25 04:06:47+0000,-40.11,-41.78,-38.00,-48.69,-54.42,-56.02
2020/07/25 04:07:39+0000,-36.60,-43.23,-38.65,-49.43,-53.62,-56.34
2020/07/25 04:08:31+0000,-38.96,-41.01,-38.83,-49.13,-54.51,-56.59
2020/07/25 04:09:23+0000,-39.10,-41.95,-37.72,-49.24,-53.85,-56.36
2020/07/25 04:10:15+0000,-39.24,-43.04,-37.47,-49.31,-53.80,-55.27
2020/07/25 04:11:14+0000,-41.41,-42.95,-37.45,-49.67,-53.85,-56.32
2020/07/25 04:12:06+0000,-40.20,-44.07,-36.77,-48.96,-54.49,-55.73
2020/07/25 04:12:59+0000,-39.16,-41.50,-36.83,-48.84,-54.62,-55.71
2020/07/25 04:13:51+0000,-38.36,-45.88,-35.76,-49.37,-54.55,-56.17
2020/07/25 04:14:43+0000,-40.11,-40.91,-36.18,-48.74,-54.68,-56.30
2020/07/25 04:15:35+0000,-38.92,-45.07,-36.04,-48.90,-54.73,-56.02
2020/07/25 04:16:27+0000,-38.67,-41.16,-35.73,-48.47,-54.26,-56.02
2020/07/25 04:17:19+0000,-38.67,-41.85,-36.16,-48.81,-54.48,-56.30
2020/07/25 04:18:11+0000,-41.03,-42.09,-35.50,-48.91,-54.35,-55.75
2020/07/25 04:19:03+0000,-39.66,-42.45,-35.98,-48.99,-54.48,-56.11
2020/07/25 04:19:55+0000,-38.56,-44.17,-36.25,-48.65,-54.72,-56.10
2020/07/25 04:20:47+0000,-36.45,-43.46,-36.21,-48.15,-54.01,-55.62
2020/07/25 04:21:47+0000,-37.01,-42.88,-37.65,-48.80,-54.73,-55.69
2020/07/25 04:22:39+0000,-39.42,-43.70,-37.12,-48.85,-53.91,-56.17
2020/07/25 04:23:31+0000,-39.82,-44.04,-37.17,-48.82,-54.38,-55.55
2020/07/25 04:24:23+0000,-36.06,-41.54,-38.46,-48.83,-54.46,-55.88
2020/07/25 04:25:15+0000,-39.44,-41.84,-36.82,-49.59,-54.49,-55.83
2020/07/25 04:26:07+0000,-40.29,-44.61,-38.33,-48.88,-54.09,-55.68
2020/07/25 04:26:59+0000,-39.52,-40.51,-38.28,-48.04,-53.55,-55.56
2020/07/25 04:27:51+0000,-34.44,-44.90,-38.55,-48.67,-53.80,-55.51
2020/07/25 04:28:43+0000,-40.62,-41.26,-37.89,-48.91,-53.82,-55.74
2020/07/25 04:29:35+0000,-39.81,-45.85,-36.12,-48.28,-54.34,-55.56
2020/07/25 04:30:28+0000,-38.06,-44.23,-36.39,-48.15,-54.57,-56.24
2020/07/25 04:31:28+0000,-38.83,-41.62,-37.88,-47.87,-53.92,-55.87
2020/07/25 04:32:20+0000,-37.75,-43.17,-38.03,-48.57,-53.48,-55.79
2020/07/25 04:33:12+0000,-39.53,-44.46,-38.79,-48.24,-53.34,-55.92
2020/07/25 04:34:04+0000,-40.56,-41.74,-37.79,-48.32,-53.50,-56.16
2020/07/25 04:34:56+0000,-36.06,-40.78,-36.89,-48.26,-53.14,-56.02
2020/07/25 04:35:48+0000,-36.51,-43.56,-35.88,-49.02,-53.25,-56.06
2020/07/25 04:36:40+0000,-39.27,-44.23,-37.07,-48.62,-53.91,-56.63
2020/07/25 04:37:32+0000,-38.14,-44.14,-37.43,-48.02,-53.80,-56.04
2020/07/25 04:38:24+0000,-38.96,-42.66,-37.24,-47.82,-53.32,-56.03
2020/07/25 04:39:16+0000,-39.93,-43.10,-37.52,-48.28,-53.27,-56.10
2020/07/25 04:40:09+0000,-39.49,-44.48,-38.08,-48.19,-52.84,-55.75
2020/07/25 04:41:08+0000,-39.75,-44.91,-37.86,-48.06,-53.57,-55.96
2020/07/25 04:42:00+0000,-41.33,-41.45,-37.08,-47.67,-53.91,-55.74
2020/07/25 04:42:52+0000,-39.60,-44.89,-37.15,-47.63,-53.80,-55.75
2020/07/25 04:43:44+0000,-37.98,-43.44,-36.55,-47.67,-54.37,-55.71
2020/07/25 04:44:36+0000,-40.24,-44.71,-37.14,-48.07,-54.02,-56.02
2020/07/25 04:45:28+0000,-36.10,-41.96,-36.45,-47.61,-52.72,-55.63
2020/07/25 04:46:20+0000,-36.89,-44.79,-39.02,-49.16,-52.17,-56.21